owner,sensor,date,latitude,longitude,vertical_datum,sea_water_temperature,qcFlag 
WAVCIS,ioos:station:WAVCIS:CSI09:1,2017-02-01T00:00:00Z,29.1015,-89.9782,0.0,-15.95,11144222 
WAVCIS,ioos:station:WAVCIS:CSI09:1,2017-02-01T01:00:00Z,29.1015,-89.9782,0.0,-17.86,11144222 
WAVCIS,ioos:station:WAVCIS:CSI09:1,2017-02-01T02:00:00Z,29.1015,-89.9782,0.0,-17.08,11144222 
WAVCIS,ioos:station:WAVCIS:CSI09:1,2017-02-01T03:00:00Z,29.1015,-89.9782,0.0,-18.07,11144222 
WAVCIS,ioos:station:WAVCIS:CSI09:1,2017-02-01T04:00:00Z,29.1015,-89.9782,0.0,-18.28,11144222 
WAVCIS,ioos:station:WAVCIS:CSI09:1,2017-02-01T05:00:00Z,29.1015,-89.9782,0.0,-18.19,11144222 
WAVCIS,ioos:station:WAVCIS:CSI09:1,2017-02-01T06:00:00Z,29.1015,-89.9782,0.0,-17.24,11144222 
WAVCIS,ioos:station:WAVCIS:CSI09:1,2017-02-01T07:00:00Z,29.1015,-89.9782,0.0,-17.53,11144222 
WAVCIS,ioos:station:WAVCIS:CSI09:1,2017-02-01T08:00:00Z,29.1015,-89.9782,0.0,-16.8,11144222 
WAVCIS,ioos:station:WAVCIS:CSI09:1,2017-02-01T09:00:00Z,29.1015,-89.9782,0.0,-16.15,11144222 
WAVCIS,ioos:station:WAVCIS:CSI09:1,2017-02-01T10:00:00Z,29.1015,-89.9782,0.0,-16.91,11144222 
WAVCIS,ioos:station:WAVCIS:CSI09:1,2017-02-01T11:00:00Z,29.1015,-89.9782,0.0,-17.06,11144222 
WAVCIS,ioos:station:WAVCIS:CSI09:1,2017-02-01T12:00:00Z,29.1015,-89.9782,0.0,-16.72,11144222 
WAVCIS,ioos:station:WAVCIS:CSI09:1,2017-02-01T13:00:00Z,29.1015,-89.9782,0.0,-17.87,11144222 
WAVCIS,ioos:station:WAVCIS:CSI09:1,2017-02-01T14:00:00Z,29.1015,-89.9782,0.0,-18.04,11144222 
WAVCIS,ioos:station:WAVCIS:CSI09:1,2017-02-01T15:00:00Z,29.1015,-89.9782,0.0,-17.96,11144222 
WAVCIS,ioos:station:WAVCIS:CSI09:1,2017-02-01T16:00:00Z,29.1015,-89.9782,0.0,-17.67,11144222 
WAVCIS,ioos:station:WAVCIS:CSI09:1,2017-02-01T17:00:00Z,29.1015,-89.9782,0.0,-15.96,11144222 
WAVCIS,ioos:station:WAVCIS:CSI09:1,2017-02-01T18:00:00Z,29.1015,-89.9782,0.0,-16.84,11144222 
WAVCIS,ioos:station:WAVCIS:CSI09:1,2017-02-01T19:00:00Z,29.1015,-89.9782,0.0,-17.52,11144222 
WAVCIS,ioos:station:WAVCIS:CSI09:1,2017-02-01T20:00:00Z,29.1015,-89.9782,0.0,-16.78,11144222 
WAVCIS,ioos:station:WAVCIS:CSI09:1,2017-02-01T21:00:00Z,29.1015,-89.9782,0.0,-16.58,11144222 
WAVCIS,ioos:station:WAVCIS:CSI09:1,2017-02-01T22:00:00Z,29.1015,-89.9782,0.0,-17.76,11144222 
WAVCIS,ioos:station:WAVCIS:CSI09:1,2017-02-01T23:00:00Z,29.1015,-89.9782,0.0,-17.74,11144222 
WAVCIS,ioos:station:WAVCIS:CSI09:1,2017-02-02T00:00:00Z,29.1015,-89.9782,0.0,-17.37,11144222 
WAVCIS,ioos:station:WAVCIS:CSI09:1,2017-02-02T01:00:00Z,29.1015,-89.9782,0.0,-17.93,11144222 
WAVCIS,ioos:station:WAVCIS:CSI09:1,2017-02-02T02:00:00Z,29.1015,-89.9782,0.0,-17.14,11144222 
WAVCIS,ioos:station:WAVCIS:CSI09:1,2017-02-02T03:00:00Z,29.1015,-89.9782,0.0,-16.88,11144222 
WAVCIS,ioos:station:WAVCIS:CSI09:1,2017-02-02T04:00:00Z,29.1015,-89.9782,0.0,-18.64,11144222 
WAVCIS,ioos:station:WAVCIS:CSI09:1,2017-02-02T05:00:00Z,29.1015,-89.9782,0.0,-17.61,11144222 
WAVCIS,ioos:station:WAVCIS:CSI09:1,2017-02-02T06:00:00Z,29.1015,-89.9782,0.0,-17.21,11144222 
WAVCIS,ioos:station:WAVCIS:CSI09:1,2017-02-02T07:00:00Z,29.1015,-89.9782,0.0,-17.3,11144222 
WAVCIS,ioos:station:WAVCIS:CSI09:1,2017-02-02T08:00:00Z,29.1015,-89.9782,0.0,-17.27,11144222 
WAVCIS,ioos:station:WAVCIS:CSI09:1,2017-02-02T09:00:00Z,29.1015,-89.9782,0.0,-17.8,11144222 
WAVCIS,ioos:station:WAVCIS:CSI09:1,2017-02-02T10:00:00Z,29.1015,-89.9782,0.0,-17.95,11144222 
WAVCIS,ioos:station:WAVCIS:CSI09:1,2017-02-02T11:00:00Z,29.1015,-89.9782,0.0,-18.35,11144222 
WAVCIS,ioos:station:WAVCIS:CSI09:1,2017-02-02T12:00:00Z,29.1015,-89.9782,0.0,-18.52,11144222 
WAVCIS,ioos:station:WAVCIS:CSI09:1,2017-02-02T13:00:00Z,29.1015,-89.9782,0.0,-17.64,11144222 
WAVCIS,ioos:station:WAVCIS:CSI09:1,2017-02-02T14:00:00Z,29.1015,-89.9782,0.0,-17.29,11144222 
WAVCIS,ioos:station:WAVCIS:CSI09:1,2017-02-02T15:00:00Z,29.1015,-89.9782,0.0,-17.54,11144222 
WAVCIS,ioos:station:WAVCIS:CSI09:1,2017-02-02T16:00:00Z,29.1015,-89.9782,0.0,-18.66,11144222 
WAVCIS,ioos:station:WAVCIS:CSI09:1,2017-02-02T17:00:00Z,29.1015,-89.9782,0.0,-19.01,11144222 
WAVCIS,ioos:station:WAVCIS:CSI09:1,2017-02-02T18:00:00Z,29.1015,-89.9782,0.0,-17.41,11144222 
WAVCIS,ioos:station:WAVCIS:CSI09:1,2017-02-02T19:00:00Z,29.1015,-89.9782,0.0,-18.64,11144222 
WAVCIS,ioos:station:WAVCIS:CSI09:1,2017-02-02T20:00:00Z,29.1015,-89.9782,0.0,-18.43,11144222 
WAVCIS,ioos:station:WAVCIS:CSI09:1,2017-02-02T21:00:00Z,29.1015,-89.9782,0.0,-17.3,11144222 
WAVCIS,ioos:station:WAVCIS:CSI09:1,2017-02-02T22:00:00Z,29.1015,-89.9782,0.0,-17.43,11144222 
WAVCIS,ioos:station:WAVCIS:CSI09:1,2017-02-02T23:00:00Z,29.1015,-89.9782,0.0,-17.05,11144222 
WAVCIS,ioos:station:WAVCIS:CSI09:1,2017-02-03T00:00:00Z,29.1015,-89.9782,0.0,-17.14,11144222 
WAVCIS,ioos:station:WAVCIS:CSI09:1,2017-02-03T01:00:00Z,29.1015,-89.9782,0.0,-17.98,11144222 
WAVCIS,ioos:station:WAVCIS:CSI09:1,2017-02-03T02:00:00Z,29.1015,-89.9782,0.0,-17.4,11144222 
WAVCIS,ioos:station:WAVCIS:CSI09:1,2017-02-03T03:00:00Z,29.1015,-89.9782,0.0,-17.53,11144222 
WAVCIS,ioos:station:WAVCIS:CSI09:1,2017-02-03T04:00:00Z,29.1015,-89.9782,0.0,-17.87,11144222 
WAVCIS,ioos:station:WAVCIS:CSI09:1,2017-02-03T05:00:00Z,29.1015,-89.9782,0.0,-17.77,11144222 
WAVCIS,ioos:station:WAVCIS:CSI09:1,2017-02-03T06:00:00Z,29.1015,-89.9782,0.0,-18.27,11144222 
WAVCIS,ioos:station:WAVCIS:CSI09:1,2017-02-03T07:00:00Z,29.1015,-89.9782,0.0,-18.47,11144222 
WAVCIS,ioos:station:WAVCIS:CSI09:1,2017-02-03T08:00:00Z,29.1015,-89.9782,0.0,-19.13,11144222 
WAVCIS,ioos:station:WAVCIS:CSI09:1,2017-02-03T09:00:00Z,29.1015,-89.9782,0.0,-18.44,11144222 
WAVCIS,ioos:station:WAVCIS:CSI09:1,2017-02-03T10:00:00Z,29.1015,-89.9782,0.0,-19.08,11144222 
WAVCIS,ioos:station:WAVCIS:CSI09:1,2017-02-03T11:00:00Z,29.1015,-89.9782,0.0,-18.57,11144222 
WAVCIS,ioos:station:WAVCIS:CSI09:1,2017-02-03T12:00:00Z,29.1015,-89.9782,0.0,-17.51,11144222 
WAVCIS,ioos:station:WAVCIS:CSI09:1,2017-02-03T13:00:00Z,29.1015,-89.9782,0.0,-17.73,11144222 
WAVCIS,ioos:station:WAVCIS:CSI09:1,2017-02-03T14:00:00Z,29.1015,-89.9782,0.0,-17.91,11144222 
WAVCIS,ioos:station:WAVCIS:CSI09:1,2017-02-03T15:00:00Z,29.1015,-89.9782,0.0,-19.01,11144222 
WAVCIS,ioos:station:WAVCIS:CSI09:1,2017-02-03T16:00:00Z,29.1015,-89.9782,0.0,-17.6,11144222 
WAVCIS,ioos:station:WAVCIS:CSI09:1,2017-02-03T17:00:00Z,29.1015,-89.9782,0.0,-18.77,11144222 
WAVCIS,ioos:station:WAVCIS:CSI09:1,2017-02-03T18:00:00Z,29.1015,-89.9782,0.0,-18.84,11144222 
WAVCIS,ioos:station:WAVCIS:CSI09:1,2017-02-03T19:00:00Z,29.1015,-89.9782,0.0,-18.75,11144222 
WAVCIS,ioos:station:WAVCIS:CSI09:1,2017-02-03T20:00:00Z,29.1015,-89.9782,0.0,-19.07,11144222 
WAVCIS,ioos:station:WAVCIS:CSI09:1,2017-02-03T21:00:00Z,29.1015,-89.9782,0.0,-19.5,11144222 
WAVCIS,ioos:station:WAVCIS:CSI09:1,2017-02-03T22:00:00Z,29.1015,-89.9782,0.0,-18.76,11144222 
WAVCIS,ioos:station:WAVCIS:CSI09:1,2017-02-03T23:00:00Z,29.1015,-89.9782,0.0,-18.69,11144222 
WAVCIS,ioos:station:WAVCIS:CSI09:1,2017-02-04T00:00:00Z,29.1015,-89.9782,0.0,-19.16,11144222 
WAVCIS,ioos:station:WAVCIS:CSI09:1,2017-02-04T01:00:00Z,29.1015,-89.9782,0.0,-19.83,11144222 
WAVCIS,ioos:station:WAVCIS:CSI09:1,2017-02-04T02:00:00Z,29.1015,-89.9782,0.0,-19.78,11144222 
WAVCIS,ioos:station:WAVCIS:CSI09:1,2017-02-04T03:00:00Z,29.1015,-89.9782,0.0,-19.46,11144222 
WAVCIS,ioos:station:WAVCIS:CSI09:1,2017-02-04T04:00:00Z,29.1015,-89.9782,0.0,-17.91,11144222 
WAVCIS,ioos:station:WAVCIS:CSI09:1,2017-02-04T05:00:00Z,29.1015,-89.9782,0.0,-17.77,11144222 
WAVCIS,ioos:station:WAVCIS:CSI09:1,2017-02-04T06:00:00Z,29.1015,-89.9782,0.0,-18.18,11144222 
WAVCIS,ioos:station:WAVCIS:CSI09:1,2017-02-04T07:00:00Z,29.1015,-89.9782,0.0,-18.11,11144222 
WAVCIS,ioos:station:WAVCIS:CSI09:1,2017-02-04T08:00:00Z,29.1015,-89.9782,0.0,-17.61,11144222 
WAVCIS,ioos:station:WAVCIS:CSI09:1,2017-02-04T09:00:00Z,29.1015,-89.9782,0.0,-17.75,11144222 
WAVCIS,ioos:station:WAVCIS:CSI09:1,2017-02-04T10:00:00Z,29.1015,-89.9782,0.0,-17.9,11144222 
WAVCIS,ioos:station:WAVCIS:CSI09:1,2017-02-04T11:00:00Z,29.1015,-89.9782,0.0,-17.52,11144222 
WAVCIS,ioos:station:WAVCIS:CSI09:1,2017-02-04T12:00:00Z,29.1015,-89.9782,0.0,-16.68,11144222 
WAVCIS,ioos:station:WAVCIS:CSI09:1,2017-02-04T13:00:00Z,29.1015,-89.9782,0.0,-17.25,11144222 
WAVCIS,ioos:station:WAVCIS:CSI09:1,2017-02-04T14:00:00Z,29.1015,-89.9782,0.0,-17.4,11144222 
WAVCIS,ioos:station:WAVCIS:CSI09:1,2017-02-04T15:00:00Z,29.1015,-89.9782,0.0,-17.07,11144222 
WAVCIS,ioos:station:WAVCIS:CSI09:1,2017-02-04T16:00:00Z,29.1015,-89.9782,0.0,-16.95,11144222 
WAVCIS,ioos:station:WAVCIS:CSI09:1,2017-02-04T17:00:00Z,29.1015,-89.9782,0.0,-18.59,11144222 
WAVCIS,ioos:station:WAVCIS:CSI09:1,2017-02-04T18:00:00Z,29.1015,-89.9782,0.0,-18.33,11144222 
WAVCIS,ioos:station:WAVCIS:CSI09:1,2017-02-04T19:00:00Z,29.1015,-89.9782,0.0,-18.49,11144222 
WAVCIS,ioos:station:WAVCIS:CSI09:1,2017-02-04T20:00:00Z,29.1015,-89.9782,0.0,-16.43,11144222 
WAVCIS,ioos:station:WAVCIS:CSI09:1,2017-02-04T21:00:00Z,29.1015,-89.9782,0.0,-17.38,11144222 
WAVCIS,ioos:station:WAVCIS:CSI09:1,2017-02-04T22:00:00Z,29.1015,-89.9782,0.0,-17.36,11144222 
WAVCIS,ioos:station:WAVCIS:CSI09:1,2017-02-04T23:00:00Z,29.1015,-89.9782,0.0,-19.12,11144222 
WAVCIS,ioos:station:WAVCIS:CSI09:1,2017-02-05T00:00:00Z,29.1015,-89.9782,0.0,-18.75,11144222 
WAVCIS,ioos:station:WAVCIS:CSI09:1,2017-02-05T01:00:00Z,29.1015,-89.9782,0.0,-19.28,11144222 
WAVCIS,ioos:station:WAVCIS:CSI09:1,2017-02-05T02:00:00Z,29.1015,-89.9782,0.0,-19.24,11144222 
WAVCIS,ioos:station:WAVCIS:CSI09:1,2017-02-05T03:00:00Z,29.1015,-89.9782,0.0,-19.23,11144222 
WAVCIS,ioos:station:WAVCIS:CSI09:1,2017-02-05T04:00:00Z,29.1015,-89.9782,0.0,-19.9,11144222 
WAVCIS,ioos:station:WAVCIS:CSI09:1,2017-02-05T05:00:00Z,29.1015,-89.9782,0.0,-19.26,11144222 
WAVCIS,ioos:station:WAVCIS:CSI09:1,2017-02-05T06:00:00Z,29.1015,-89.9782,0.0,-18.6,11144222 
WAVCIS,ioos:station:WAVCIS:CSI09:1,2017-02-05T07:00:00Z,29.1015,-89.9782,0.0,-19.15,11144222 
WAVCIS,ioos:station:WAVCIS:CSI09:1,2017-02-05T08:00:00Z,29.1015,-89.9782,0.0,-9999.0,2 
WAVCIS,ioos:station:WAVCIS:CSI09:1,2017-02-05T09:00:00Z,29.1015,-89.9782,0.0,-9999.0,2 
WAVCIS,ioos:station:WAVCIS:CSI09:1,2017-02-05T10:00:00Z,29.1015,-89.9782,0.0,-9999.0,2 
WAVCIS,ioos:station:WAVCIS:CSI09:1,2017-02-05T11:00:00Z,29.1015,-89.9782,0.0,-19.91,11144222 
WAVCIS,ioos:station:WAVCIS:CSI09:1,2017-02-05T12:00:00Z,29.1015,-89.9782,0.0,-9999.0,2 
WAVCIS,ioos:station:WAVCIS:CSI09:1,2017-02-05T13:00:00Z,29.1015,-89.9782,0.0,-9999.0,2 
WAVCIS,ioos:station:WAVCIS:CSI09:1,2017-02-05T14:00:00Z,29.1015,-89.9782,0.0,-9999.0,2 
WAVCIS,ioos:station:WAVCIS:CSI09:1,2017-02-05T15:00:00Z,29.1015,-89.9782,0.0,-19.9,11144222 
WAVCIS,ioos:station:WAVCIS:CSI09:1,2017-02-05T16:00:00Z,29.1015,-89.9782,0.0,-9999.0,2 
WAVCIS,ioos:station:WAVCIS:CSI09:1,2017-02-05T17:00:00Z,29.1015,-89.9782,0.0,-9999.0,2 
WAVCIS,ioos:station:WAVCIS:CSI09:1,2017-02-05T18:00:00Z,29.1015,-89.9782,0.0,-9999.0,2 
WAVCIS,ioos:station:WAVCIS:CSI09:1,2017-02-05T19:00:00Z,29.1015,-89.9782,0.0,-9999.0,2 
WAVCIS,ioos:station:WAVCIS:CSI09:1,2017-02-05T20:00:00Z,29.1015,-89.9782,0.0,-19.37,11144222 
WAVCIS,ioos:station:WAVCIS:CSI09:1,2017-02-05T21:00:00Z,29.1015,-89.9782,0.0,-19.99,11144222 
WAVCIS,ioos:station:WAVCIS:CSI09:1,2017-02-05T22:00:00Z,29.1015,-89.9782,0.0,-9999.0,2 
WAVCIS,ioos:station:WAVCIS:CSI09:1,2017-02-05T23:00:00Z,29.1015,-89.9782,0.0,-9999.0,2 
WAVCIS,ioos:station:WAVCIS:CSI09:1,2017-02-06T00:00:00Z,29.1015,-89.9782,0.0,-18.89,11144222 
WAVCIS,ioos:station:WAVCIS:CSI09:1,2017-02-06T01:00:00Z,29.1015,-89.9782,0.0,-19.89,11144222 
WAVCIS,ioos:station:WAVCIS:CSI09:1,2017-02-06T02:00:00Z,29.1015,-89.9782,0.0,-9999.0,2 
WAVCIS,ioos:station:WAVCIS:CSI09:1,2017-02-06T03:00:00Z,29.1015,-89.9782,0.0,-9999.0,2 
WAVCIS,ioos:station:WAVCIS:CSI09:1,2017-02-06T04:00:00Z,29.1015,-89.9782,0.0,-9999.0,2 
WAVCIS,ioos:station:WAVCIS:CSI09:1,2017-02-06T05:00:00Z,29.1015,-89.9782,0.0,-9999.0,2 
WAVCIS,ioos:station:WAVCIS:CSI09:1,2017-02-06T06:00:00Z,29.1015,-89.9782,0.0,-9999.0,2 
WAVCIS,ioos:station:WAVCIS:CSI09:1,2017-02-06T07:00:00Z,29.1015,-89.9782,0.0,-9999.0,2 
WAVCIS,ioos:station:WAVCIS:CSI09:1,2017-02-06T08:00:00Z,29.1015,-89.9782,0.0,-9999.0,2 
WAVCIS,ioos:station:WAVCIS:CSI09:1,2017-02-06T09:00:00Z,29.1015,-89.9782,0.0,-9999.0,2 
WAVCIS,ioos:station:WAVCIS:CSI09:1,2017-02-06T10:00:00Z,29.1015,-89.9782,0.0,-9999.0,2 
WAVCIS,ioos:station:WAVCIS:CSI09:1,2017-02-06T11:00:00Z,29.1015,-89.9782,0.0,-9999.0,2 
WAVCIS,ioos:station:WAVCIS:CSI09:1,2017-02-06T12:00:00Z,29.1015,-89.9782,0.0,-9999.0,2 
WAVCIS,ioos:station:WAVCIS:CSI09:1,2017-02-06T13:00:00Z,29.1015,-89.9782,0.0,-9999.0,2 
WAVCIS,ioos:station:WAVCIS:CSI09:1,2017-02-06T14:00:00Z,29.1015,-89.9782,0.0,-9999.0,2 
WAVCIS,ioos:station:WAVCIS:CSI09:1,2017-02-06T15:00:00Z,29.1015,-89.9782,0.0,-9999.0,2 
WAVCIS,ioos:station:WAVCIS:CSI09:1,2017-02-06T16:00:00Z,29.1015,-89.9782,0.0,-9999.0,2 
WAVCIS,ioos:station:WAVCIS:CSI09:1,2017-02-06T17:00:00Z,29.1015,-89.9782,0.0,-9999.0,2 
WAVCIS,ioos:station:WAVCIS:CSI09:1,2017-02-06T18:00:00Z,29.1015,-89.9782,0.0,-9999.0,2 
WAVCIS,ioos:station:WAVCIS:CSI09:1,2017-02-06T19:00:00Z,29.1015,-89.9782,0.0,-9999.0,2 
WAVCIS,ioos:station:WAVCIS:CSI09:1,2017-02-06T20:00:00Z,29.1015,-89.9782,0.0,-18.82,11144222 
WAVCIS,ioos:station:WAVCIS:CSI09:1,2017-02-06T21:00:00Z,29.1015,-89.9782,0.0,-19.9,11144222 
WAVCIS,ioos:station:WAVCIS:CSI09:1,2017-02-06T22:00:00Z,29.1015,-89.9782,0.0,-19.15,11144222 
WAVCIS,ioos:station:WAVCIS:CSI09:1,2017-02-06T23:00:00Z,29.1015,-89.9782,0.0,-19.13,11144222 
WAVCIS,ioos:station:WAVCIS:CSI09:1,2017-02-07T00:00:00Z,29.1015,-89.9782,0.0,-19.28,11144222 
WAVCIS,ioos:station:WAVCIS:CSI09:1,2017-02-07T01:00:00Z,29.1015,-89.9782,0.0,-19.57,11144222 
WAVCIS,ioos:station:WAVCIS:CSI09:1,2017-02-07T02:00:00Z,29.1015,-89.9782,0.0,-19.86,11144222 
WAVCIS,ioos:station:WAVCIS:CSI09:1,2017-02-07T03:00:00Z,29.1015,-89.9782,0.0,-19.63,11144222 
WAVCIS,ioos:station:WAVCIS:CSI09:1,2017-02-07T04:00:00Z,29.1015,-89.9782,0.0,-18.73,11144222 
WAVCIS,ioos:station:WAVCIS:CSI09:1,2017-02-07T05:00:00Z,29.1015,-89.9782,0.0,-9999.0,2 
WAVCIS,ioos:station:WAVCIS:CSI09:1,2017-02-07T06:00:00Z,29.1015,-89.9782,0.0,-9999.0,2 
WAVCIS,ioos:station:WAVCIS:CSI09:1,2017-02-07T07:00:00Z,29.1015,-89.9782,0.0,-19.72,11144222 
WAVCIS,ioos:station:WAVCIS:CSI09:1,2017-02-07T08:00:00Z,29.1015,-89.9782,0.0,-18.98,11144222 
WAVCIS,ioos:station:WAVCIS:CSI09:1,2017-02-07T09:00:00Z,29.1015,-89.9782,0.0,-18.99,11144222 
WAVCIS,ioos:station:WAVCIS:CSI09:1,2017-02-07T10:00:00Z,29.1015,-89.9782,0.0,-18.26,11144222 
WAVCIS,ioos:station:WAVCIS:CSI09:1,2017-02-07T11:00:00Z,29.1015,-89.9782,0.0,-18.63,11144222 
WAVCIS,ioos:station:WAVCIS:CSI09:1,2017-02-07T12:00:00Z,29.1015,-89.9782,0.0,-19.59,11144222 
WAVCIS,ioos:station:WAVCIS:CSI09:1,2017-02-07T13:00:00Z,29.1015,-89.9782,0.0,-19.27,11144222 
WAVCIS,ioos:station:WAVCIS:CSI09:1,2017-02-07T14:00:00Z,29.1015,-89.9782,0.0,-19.27,11144222 
WAVCIS,ioos:station:WAVCIS:CSI09:1,2017-02-07T15:00:00Z,29.1015,-89.9782,0.0,-18.8,11144222 
WAVCIS,ioos:station:WAVCIS:CSI09:1,2017-02-07T16:00:00Z,29.1015,-89.9782,0.0,-19.34,11144222 
WAVCIS,ioos:station:WAVCIS:CSI09:1,2017-02-07T17:00:00Z,29.1015,-89.9782,0.0,-18.98,11144222 
WAVCIS,ioos:station:WAVCIS:CSI09:1,2017-02-07T18:00:00Z,29.1015,-89.9782,0.0,-18.31,11144222 
WAVCIS,ioos:station:WAVCIS:CSI09:1,2017-02-07T19:00:00Z,29.1015,-89.9782,0.0,-17.98,11144222 
WAVCIS,ioos:station:WAVCIS:CSI09:1,2017-02-07T20:00:00Z,29.1015,-89.9782,0.0,-17.3,11144222 
WAVCIS,ioos:station:WAVCIS:CSI09:1,2017-02-07T21:00:00Z,29.1015,-89.9782,0.0,-17.86,11144222 
WAVCIS,ioos:station:WAVCIS:CSI09:1,2017-02-07T22:00:00Z,29.1015,-89.9782,0.0,-17.94,11144222 
WAVCIS,ioos:station:WAVCIS:CSI09:1,2017-02-07T23:00:00Z,29.1015,-89.9782,0.0,-18.3,11144222 
WAVCIS,ioos:station:WAVCIS:CSI09:1,2017-02-08T00:00:00Z,29.1015,-89.9782,0.0,-18.46,11144222 
WAVCIS,ioos:station:WAVCIS:CSI09:1,2017-02-08T01:00:00Z,29.1015,-89.9782,0.0,-18.34,11144222 
WAVCIS,ioos:station:WAVCIS:CSI09:1,2017-02-08T02:00:00Z,29.1015,-89.9782,0.0,-19.18,11144222 
WAVCIS,ioos:station:WAVCIS:CSI09:1,2017-02-08T03:00:00Z,29.1015,-89.9782,0.0,-9999.0,2 
WAVCIS,ioos:station:WAVCIS:CSI09:1,2017-02-08T04:00:00Z,29.1015,-89.9782,0.0,-9999.0,2 
WAVCIS,ioos:station:WAVCIS:CSI09:1,2017-02-08T05:00:00Z,29.1015,-89.9782,0.0,-16.11,11144222 
WAVCIS,ioos:station:WAVCIS:CSI09:1,2017-02-08T06:00:00Z,29.1015,-89.9782,0.0,-16.74,11144222 
WAVCIS,ioos:station:WAVCIS:CSI09:1,2017-02-08T07:00:00Z,29.1015,-89.9782,0.0,-16.01,11144222 
WAVCIS,ioos:station:WAVCIS:CSI09:1,2017-02-08T08:00:00Z,29.1015,-89.9782,0.0,-16.27,11144222 
WAVCIS,ioos:station:WAVCIS:CSI09:1,2017-02-08T09:00:00Z,29.1015,-89.9782,0.0,-16.72,11144222 
WAVCIS,ioos:station:WAVCIS:CSI09:1,2017-02-08T10:00:00Z,29.1015,-89.9782,0.0,-16.86,11144222 
WAVCIS,ioos:station:WAVCIS:CSI09:1,2017-02-08T11:00:00Z,29.1015,-89.9782,0.0,-16.53,11144222 
WAVCIS,ioos:station:WAVCIS:CSI09:1,2017-02-08T12:00:00Z,29.1015,-89.9782,0.0,-16.92,11144222 
WAVCIS,ioos:station:WAVCIS:CSI09:1,2017-02-08T13:00:00Z,29.1015,-89.9782,0.0,-17.06,11144222 
WAVCIS,ioos:station:WAVCIS:CSI09:1,2017-02-08T14:00:00Z,29.1015,-89.9782,0.0,-16.85,11144222 
WAVCIS,ioos:station:WAVCIS:CSI09:1,2017-02-08T15:00:00Z,29.1015,-89.9782,0.0,-17.05,11144222 
WAVCIS,ioos:station:WAVCIS:CSI09:1,2017-02-08T16:00:00Z,29.1015,-89.9782,0.0,-18.85,11144222 
WAVCIS,ioos:station:WAVCIS:CSI09:1,2017-02-08T17:00:00Z,29.1015,-89.9782,0.0,-17.65,11144222 
WAVCIS,ioos:station:WAVCIS:CSI09:1,2017-02-08T18:00:00Z,29.1015,-89.9782,0.0,-17.85,11144222 
WAVCIS,ioos:station:WAVCIS:CSI09:1,2017-02-08T19:00:00Z,29.1015,-89.9782,0.0,-17.24,11144222 
WAVCIS,ioos:station:WAVCIS:CSI09:1,2017-02-08T20:00:00Z,29.1015,-89.9782,0.0,-17.18,11144222 
WAVCIS,ioos:station:WAVCIS:CSI09:1,2017-02-08T21:00:00Z,29.1015,-89.9782,0.0,-17.27,11144222 
WAVCIS,ioos:station:WAVCIS:CSI09:1,2017-02-08T22:00:00Z,29.1015,-89.9782,0.0,-17.16,11144222 
WAVCIS,ioos:station:WAVCIS:CSI09:1,2017-02-08T23:00:00Z,29.1015,-89.9782,0.0,-17.84,11144222 
WAVCIS,ioos:station:WAVCIS:CSI09:1,2017-02-09T00:00:00Z,29.1015,-89.9782,0.0,-17.7,11144222 
WAVCIS,ioos:station:WAVCIS:CSI09:1,2017-02-09T01:00:00Z,29.1015,-89.9782,0.0,-17.58,11144222 
WAVCIS,ioos:station:WAVCIS:CSI09:1,2017-02-09T02:00:00Z,29.1015,-89.9782,0.0,-18.22,11144222 
WAVCIS,ioos:station:WAVCIS:CSI09:1,2017-02-09T03:00:00Z,29.1015,-89.9782,0.0,-18.14,11144222 
WAVCIS,ioos:station:WAVCIS:CSI09:1,2017-02-09T04:00:00Z,29.1015,-89.9782,0.0,-10.82,11144222 
WAVCIS,ioos:station:WAVCIS:CSI09:1,2017-02-09T05:00:00Z,29.1015,-89.9782,0.0,-10.32,11144222 
WAVCIS,ioos:station:WAVCIS:CSI09:1,2017-02-09T06:00:00Z,29.1015,-89.9782,0.0,-10.08,11144222 
WAVCIS,ioos:station:WAVCIS:CSI09:1,2017-02-09T07:00:00Z,29.1015,-89.9782,0.0,-11.21,11144222 
WAVCIS,ioos:station:WAVCIS:CSI09:1,2017-02-09T08:00:00Z,29.1015,-89.9782,0.0,-9.85,11144222 
WAVCIS,ioos:station:WAVCIS:CSI09:1,2017-02-09T09:00:00Z,29.1015,-89.9782,0.0,-10.37,11144222 
WAVCIS,ioos:station:WAVCIS:CSI09:1,2017-02-09T10:00:00Z,29.1015,-89.9782,0.0,-10.98,11144222 
WAVCIS,ioos:station:WAVCIS:CSI09:1,2017-02-09T11:00:00Z,29.1015,-89.9782,0.0,-10.78,11144222 
WAVCIS,ioos:station:WAVCIS:CSI09:1,2017-02-09T12:00:00Z,29.1015,-89.9782,0.0,-10.17,11144222 
WAVCIS,ioos:station:WAVCIS:CSI09:1,2017-02-09T13:00:00Z,29.1015,-89.9782,0.0,-9.8,11144222 
WAVCIS,ioos:station:WAVCIS:CSI09:1,2017-02-09T14:00:00Z,29.1015,-89.9782,0.0,-9.62,11144222 
WAVCIS,ioos:station:WAVCIS:CSI09:1,2017-02-09T15:00:00Z,29.1015,-89.9782,0.0,-10.31,11144222 
WAVCIS,ioos:station:WAVCIS:CSI09:1,2017-02-09T16:00:00Z,29.1015,-89.9782,0.0,-10.57,11144222 
WAVCIS,ioos:station:WAVCIS:CSI09:1,2017-02-09T17:00:00Z,29.1015,-89.9782,0.0,-10.04,11144222 
WAVCIS,ioos:station:WAVCIS:CSI09:1,2017-02-09T18:00:00Z,29.1015,-89.9782,0.0,-8.31,11144222 
WAVCIS,ioos:station:WAVCIS:CSI09:1,2017-02-09T19:00:00Z,29.1015,-89.9782,0.0,-8.96,11144222 
WAVCIS,ioos:station:WAVCIS:CSI09:1,2017-02-09T20:00:00Z,29.1015,-89.9782,0.0,-6.629,11144222 
WAVCIS,ioos:station:WAVCIS:CSI09:1,2017-02-09T21:00:00Z,29.1015,-89.9782,0.0,-7.44,11144222 
WAVCIS,ioos:station:WAVCIS:CSI09:1,2017-02-09T22:00:00Z,29.1015,-89.9782,0.0,-7.5,11144222 
WAVCIS,ioos:station:WAVCIS:CSI09:1,2017-02-09T23:00:00Z,29.1015,-89.9782,0.0,-8.0,11144222 
WAVCIS,ioos:station:WAVCIS:CSI09:1,2017-02-10T00:00:00Z,29.1015,-89.9782,0.0,-7.52,11144222 
WAVCIS,ioos:station:WAVCIS:CSI09:1,2017-02-10T01:00:00Z,29.1015,-89.9782,0.0,-7.14,11144222 
WAVCIS,ioos:station:WAVCIS:CSI09:1,2017-02-10T02:00:00Z,29.1015,-89.9782,0.0,-7.67,11144222 
WAVCIS,ioos:station:WAVCIS:CSI09:1,2017-02-10T03:00:00Z,29.1015,-89.9782,0.0,-8.08,11144222 
WAVCIS,ioos:station:WAVCIS:CSI09:1,2017-02-10T04:00:00Z,29.1015,-89.9782,0.0,-7.85,11144222 
WAVCIS,ioos:station:WAVCIS:CSI09:1,2017-02-10T05:00:00Z,29.1015,-89.9782,0.0,-7.84,11144222 
WAVCIS,ioos:station:WAVCIS:CSI09:1,2017-02-10T06:00:00Z,29.1015,-89.9782,0.0,-7.88,11144222 
WAVCIS,ioos:station:WAVCIS:CSI09:1,2017-02-10T07:00:00Z,29.1015,-89.9782,0.0,-7.86,11144222 
WAVCIS,ioos:station:WAVCIS:CSI09:1,2017-02-10T08:00:00Z,29.1015,-89.9782,0.0,-7.92,11144222 
WAVCIS,ioos:station:WAVCIS:CSI09:1,2017-02-10T09:00:00Z,29.1015,-89.9782,0.0,-8.12,11144222 
WAVCIS,ioos:station:WAVCIS:CSI09:1,2017-02-10T10:00:00Z,29.1015,-89.9782,0.0,-7.52,11144222 
WAVCIS,ioos:station:WAVCIS:CSI09:1,2017-02-10T11:00:00Z,29.1015,-89.9782,0.0,-7.42,11144222 
WAVCIS,ioos:station:WAVCIS:CSI09:1,2017-02-10T12:00:00Z,29.1015,-89.9782,0.0,-7.39,11144222 
WAVCIS,ioos:station:WAVCIS:CSI09:1,2017-02-10T13:00:00Z,29.1015,-89.9782,0.0,-7.91,11144222 
WAVCIS,ioos:station:WAVCIS:CSI09:1,2017-02-10T14:00:00Z,29.1015,-89.9782,0.0,-8.29,11144222 
WAVCIS,ioos:station:WAVCIS:CSI09:1,2017-02-10T15:00:00Z,29.1015,-89.9782,0.0,-8.21,11144222 
WAVCIS,ioos:station:WAVCIS:CSI09:1,2017-02-10T16:00:00Z,29.1015,-89.9782,0.0,-8.77,11144222 
WAVCIS,ioos:station:WAVCIS:CSI09:1,2017-02-10T17:00:00Z,29.1015,-89.9782,0.0,-8.0,11144222 
WAVCIS,ioos:station:WAVCIS:CSI09:1,2017-02-10T18:00:00Z,29.1015,-89.9782,0.0,-7.88,11144222 
WAVCIS,ioos:station:WAVCIS:CSI09:1,2017-02-10T19:00:00Z,29.1015,-89.9782,0.0,-5.939,11144222 
WAVCIS,ioos:station:WAVCIS:CSI09:1,2017-02-10T20:00:00Z,29.1015,-89.9782,0.0,-5.554,11144222 
WAVCIS,ioos:station:WAVCIS:CSI09:1,2017-02-10T21:00:00Z,29.1015,-89.9782,0.0,-7.14,11144222 
WAVCIS,ioos:station:WAVCIS:CSI09:1,2017-02-10T22:00:00Z,29.1015,-89.9782,0.0,-7.61,11144222 
WAVCIS,ioos:station:WAVCIS:CSI09:1,2017-02-10T23:00:00Z,29.1015,-89.9782,0.0,-7.41,11144222 
WAVCIS,ioos:station:WAVCIS:CSI09:1,2017-02-11T00:00:00Z,29.1015,-89.9782,0.0,-7.9,11144222 
WAVCIS,ioos:station:WAVCIS:CSI09:1,2017-02-11T01:00:00Z,29.1015,-89.9782,0.0,-6.44,11144222 
WAVCIS,ioos:station:WAVCIS:CSI09:1,2017-02-11T02:00:00Z,29.1015,-89.9782,0.0,-7.39,11144222 
WAVCIS,ioos:station:WAVCIS:CSI09:1,2017-02-11T03:00:00Z,29.1015,-89.9782,0.0,-7.33,11144222 
WAVCIS,ioos:station:WAVCIS:CSI09:1,2017-02-11T04:00:00Z,29.1015,-89.9782,0.0,-7.51,11144222 
WAVCIS,ioos:station:WAVCIS:CSI09:1,2017-02-11T05:00:00Z,29.1015,-89.9782,0.0,-8.0,11144222 
WAVCIS,ioos:station:WAVCIS:CSI09:1,2017-02-11T06:00:00Z,29.1015,-89.9782,0.0,-8.39,11144222 
WAVCIS,ioos:station:WAVCIS:CSI09:1,2017-02-11T07:00:00Z,29.1015,-89.9782,0.0,-7.7,11144222 
WAVCIS,ioos:station:WAVCIS:CSI09:1,2017-02-11T08:00:00Z,29.1015,-89.9782,0.0,-7.85,11144222 
WAVCIS,ioos:station:WAVCIS:CSI09:1,2017-02-11T09:00:00Z,29.1015,-89.9782,0.0,-7.96,11144222 
WAVCIS,ioos:station:WAVCIS:CSI09:1,2017-02-11T10:00:00Z,29.1015,-89.9782,0.0,-8.44,11144222 
WAVCIS,ioos:station:WAVCIS:CSI09:1,2017-02-11T11:00:00Z,29.1015,-89.9782,0.0,-7.7,11144222 
WAVCIS,ioos:station:WAVCIS:CSI09:1,2017-02-11T12:00:00Z,29.1015,-89.9782,0.0,-7.88,11144222 
WAVCIS,ioos:station:WAVCIS:CSI09:1,2017-02-11T13:00:00Z,29.1015,-89.9782,0.0,-8.41,11144222 
WAVCIS,ioos:station:WAVCIS:CSI09:1,2017-02-11T14:00:00Z,29.1015,-89.9782,0.0,-7.89,11144222 
WAVCIS,ioos:station:WAVCIS:CSI09:1,2017-02-11T15:00:00Z,29.1015,-89.9782,0.0,-7.89,11144222 
WAVCIS,ioos:station:WAVCIS:CSI09:1,2017-02-11T16:00:00Z,29.1015,-89.9782,0.0,-6.543,11144222 